| time (UTC) | temp C | wind direction | speed KPH | gust KPH | rain 1hr cm | rain 24hr cm | rain mn cm | humidity % | barometer mb |
| 20260506162534 | 16 | 248 | 3.2 | 11.3 | 0.13 | 0.23 | 0.23 | 88 | 1006.5 |
| 20260506162036 | 16 | 243 | 3.2 | 11.3 | 0.13 | 0.23 | 0.23 | 88 | 1006.6 |
| 20260506161553 | 16 | 188 | 4.8 | 9.7 | 0.13 | 0.20 | 0.20 | 88 | 1006.6 |
| 20260506161034 | 16 | 198 | 3.2 | 11.3 | 0.13 | 0.20 | 0.20 | 88 | 1006.8 |
| 20260506160538 | 16 | 196 | 3.2 | 11.3 | 0.10 | 0.18 | 0.18 | 88 | 1006.8 |
| 20260506160046 | 16 | 192 | 3.2 | 14.5 | 0.08 | 0.15 | 0.15 | 87 | 1007.1 |
| 20260506155537 | 16 | 360 | 3.2 | 14.5 | 0.05 | 0.13 | 0.13 | 87 | 1007.4 |
| 20260506155036 | 16 | 360 | 3.2 | 14.5 | 0.08 | 0.13 | 0.13 | 87 | 1007.4 |
| 20260506154553 | 16 | 360 | 4.8 | 14.5 | 0.05 | 0.10 | 0.10 | 87 | 1007.5 |
| 20260506154035 | 16 | 360 | 3.2 | 14.5 | 0.08 | 0.10 | 0.10 | 87 | 1007.3 |
| 20260506153536 | 16 | 360 | 4.8 | 14.5 | 0.08 | 0.10 | 0.10 | 87 | 1007.2 |
| 20260506153051 | 16 | 360 | 3.2 | 12.9 | 0.08 | 0.10 | 0.10 | 87 | 1007.2 |
| 20260506152536 | 16 | 360 | 3.2 | 12.9 | 0.08 | 0.10 | 0.10 | 87 | 1007.1 |
| 20260506152036 | 16 | 360 | 3.2 | 9.7 | 0.10 | 0.10 | 0.10 | 87 | 1007.1 |
| 20260506151547 | 16 | 360 | 3.2 | 9.7 | 0.08 | 0.08 | 0.08 | 86 | 1007.3 |
| 20260506151035 | 16 | 360 | 3.2 | 8.0 | 0.08 | 0.08 | 0.08 | 87 | 1007.4 |
| 20260506150535 | 16 | 0 | 1.6 | 12.9 | 0.08 | 0.08 | 0.08 | 87 | 1007.3 |
| 20260506150054 | 16 | 360 | 3.2 | 12.9 | 0.08 | 0.08 | 0.08 | 86 | 1007.5 |
| 20260506145536 | 16 | 360 | 1.6 | 9.7 | 0.05 | 0.05 | 0.05 | 86 | 1007.5 |
| 20260506145035 | 16 | 360 | 3.2 | 9.7 | 0.05 | 0.05 | 0.05 | 86 | 1007.6 |
| 20260506144545 | 16 | 360 | 1.6 | 9.7 | 0.05 | 0.05 | 0.05 | 86 | 1007.5 |
| 20260506144035 | 16 | 360 | 0.0 | 6.4 | 0.03 | 0.03 | 0.03 | 85 | 1007.7 |
| 20260506143535 | 16 | 360 | 1.6 | 6.4 | 0.03 | 0.03 | 0.03 | 85 | 1007.8 |
| 20260506143044 | 16 | 360 | 3.2 | 6.4 | 0.03 | 0.03 | 0.03 | 84 | 1007.8 |
| 20260506142536 | 16 | 0 | 0.0 | 6.4 | 0.03 | 0.03 | 0.03 | 85 | 1007.8 |
| 20260506142036 | 16 | 360 | 0.0 | 4.8 | 0.00 | 0.00 | 0.00 | 84 | 1007.9 |
| 20260506141539 | 16 | 360 | 1.6 | 4.8 | 0.00 | 0.00 | 0.00 | 84 | 1007.8 |
| 20260506141036 | 16 | 360 | 1.6 | 6.4 | 0.00 | 0.00 | 0.00 | 83 | 1007.8 |
| 20260506140536 | 16 | 360 | 1.6 | 9.7 | 0.00 | 0.00 | 0.00 | 83 | 1007.7 |
| 20260506140050 | 16 | 0 | 3.2 | 9.7 | 0.00 | 0.00 | 0.00 | 82 | 1007.7 |
| 20260506135535 | 17 | 360 | 0.0 | 12.9 | 0.00 | 0.00 | 0.00 | 81 | 1007.9 |
| 20260506135035 | 17 | 360 | 3.2 | 12.9 | 0.00 | 0.00 | 0.00 | 80 | 1007.8 |
| 20260506134610 | 17 | 360 | 1.6 | 8.0 | 0.00 | 0.00 | 0.00 | 80 | 1007.8 |
| 20260506134035 | 17 | 360 | 1.6 | 9.7 | 0.00 | 0.00 | 0.00 | 80 | 1007.8 |
| 20260506133535 | 17 | 360 | 3.2 | 9.7 | 0.00 | 0.00 | 0.00 | 78 | 1007.8 |
| 20260506133044 | 17 | 360 | 3.2 | 9.7 | 0.00 | 0.00 | 0.00 | 77 | 1007.9 |
| 20260506132535 | 17 | 360 | 3.2 | 9.7 | 0.00 | 0.00 | 0.00 | 76 | 1007.9 |
| 20260506132035 | 17 | 360 | 3.2 | 9.7 | 0.00 | 0.00 | 0.00 | 76 | 1007.9 |
| 20260506131607 | 17 | 360 | 1.6 | 12.9 | 0.00 | 0.00 | 0.00 | 76 | 1007.8 |
| 20260506131035 | 17 | 360 | 3.2 | 12.9 | 0.00 | 0.00 | 0.00 | 76 | 1007.7 |
| 20260506130535 | 17 | 360 | 4.8 | 12.9 | 0.00 | 0.00 | 0.00 | 76 | 1007.5 |
| 20260506130047 | 17 | 360 | 1.6 | 12.9 | 0.00 | 0.00 | 0.00 | 76 | 1007.4 |
| 20260506125535 | 17 | 360 | 4.8 | 12.9 | 0.00 | 0.00 | 0.00 | 75 | 1007.4 |
| 20260506125036 | 17 | 360 | 1.6 | 14.5 | 0.00 | 0.00 | 0.00 | 75 | 1007.5 |
| 20260506124544 | 18 | 360 | 4.8 | 14.5 | 0.00 | 0.00 | 0.00 | 75 | 1007.5 |
| 20260506124037 | 18 | 360 | 4.8 | 12.9 | 0.00 | 0.00 | 0.00 | 74 | 1007.4 |
| 20260506123537 | 18 | 360 | 4.8 | 12.9 | 0.00 | 0.00 | 0.00 | 74 | 1007.3 |
| 20260506123048 | 17 | 360 | 3.2 | 9.7 | 0.00 | 0.00 | 0.00 | 75 | 1007.5 |
| 20260506122536 | 17 | 360 | 3.2 | 14.5 | 0.00 | 0.00 | 0.00 | 75 | 1007.7 |
| 20260506122036 | 17 | 360 | 4.8 | 16.1 | 0.00 | 0.00 | 0.00 | 75 | 1007.6 |
| 20260506121549 | 17 | 360 | 6.4 | 16.1 | 0.00 | 0.00 | 0.00 | 75 | 1007.6 |
| 20260506121035 | 17 | 360 | 4.8 | 12.9 | 0.00 | 0.00 | 0.00 | 76 | 1007.7 |
| 20260506120535 | 17 | 360 | 3.2 | 12.9 | 0.00 | 0.00 | 0.00 | 76 | 1007.8 |
| 20260506120047 | 17 | 360 | 1.6 | 19.3 | 0.00 | 0.00 | 0.00 | 75 | 1007.7 |
| 20260506115537 | 17 | 360 | 3.2 | 19.3 | 0.00 | 0.00 | 0.00 | 75 | 1007.7 |
| 20260506115036 | 17 | 360 | 4.8 | 12.9 | 0.00 | 0.00 | 0.00 | 75 | 1007.7 |
| 20260506114546 | 17 | 360 | 1.6 | 12.9 | 0.00 | 0.00 | 0.00 | 75 | 1007.7 |
| 20260506114036 | 17 | 360 | 4.8 | 12.9 | 0.00 | 0.00 | 0.00 | 75 | 1007.8 |
| 20260506113537 | 17 | 360 | 1.6 | 16.1 | 0.00 | 0.00 | 0.00 | 75 | 1007.8 |
| 20260506113046 | 17 | 360 | 4.8 | 16.1 | 0.00 | 0.00 | 0.00 | 75 | 1007.8 |
| 20260506112536 | 17 | 360 | 6.4 | 16.1 | 0.00 | 0.00 | 0.00 | 75 | 1007.8 |
| 20260506112035 | 17 | 360 | 1.6 | 12.9 | 0.00 | 0.00 | 0.00 | 75 | 1007.8 |
| 20260506111602 | 17 | 360 | 3.2 | 12.9 | 0.00 | 0.00 | 0.00 | 75 | 1007.7 |
| 20260506111035 | 17 | 360 | 4.8 | 12.9 | 0.00 | 0.00 | 0.00 | 75 | 1007.7 |
| 20260506110537 | 17 | 360 | 3.2 | 9.7 | 0.00 | 0.00 | 0.00 | 75 | 1007.4 |
| 20260506110045 | 17 | 360 | 4.8 | 8.0 | 0.00 | 0.00 | 0.00 | 75 | 1007.4 |
| 20260506105536 | 17 | 360 | 1.6 | 9.7 | 0.00 | 0.00 | 0.00 | 74 | 1007.4 |
| 20260506105036 | 17 | 360 | 3.2 | 17.7 | 0.00 | 0.00 | 0.00 | 74 | 1007.5 |
| 20260506104545 | 17 | 0 | 1.6 | 17.7 | 0.00 | 0.00 | 0.00 | 74 | 1007.4 |
| 20260506104035 | 17 | 360 | 4.8 | 17.7 | 0.00 | 0.00 | 0.00 | 74 | 1007.3 |
| 20260506103535 | 17 | 360 | 1.6 | 12.9 | 0.00 | 0.00 | 0.00 | 74 | 1007.4 |
| 20260506103044 | 17 | 360 | 1.6 | 12.9 | 0.00 | 0.00 | 0.00 | 74 | 1007.3 |
| 20260506102535 | 17 | 360 | 4.8 | 8.0 | 0.00 | 0.00 | 0.00 | 74 | 1007.4 |
| 20260506102037 | 17 | 360 | 0.0 | 9.7 | 0.00 | 0.00 | 0.00 | 74 | 1007.4 |
| 20260506101542 | 17 | 0 | 1.6 | 9.7 | 0.00 | 0.00 | 0.00 | 74 | 1007.5 |
| 20260506101036 | 17 | 360 | 1.6 | 8.0 | 0.00 | 0.00 | 0.00 | 74 | 1007.3 |
| 20260506100536 | 17 | 360 | 1.6 | 9.7 | 0.00 | 0.00 | 0.00 | 74 | 1007.3 |
| 20260506100049 | 17 | 0 | 1.6 | 16.1 | 0.00 | 0.00 | 0.00 | 74 | 1007.4 |
| 20260506095536 | 17 | 360 | 3.2 | 16.1 | 0.00 | 0.00 | 0.00 | 74 | 1007.3 |
| 20260506095040 | 17 | 360 | 1.6 | 9.7 | 0.00 | 0.00 | 0.00 | 73 | 1007.4 |
| 20260506094547 | 17 | 360 | 1.6 | 9.7 | 0.00 | 0.00 | 0.00 | 73 | 1007.5 |
| 20260506094039 | 17 | 360 | 3.2 | 8.0 | 0.00 | 0.00 | 0.00 | 73 | 1007.2 |
| 20260506093535 | 17 | 360 | 3.2 | 8.0 | 0.00 | 0.00 | 0.00 | 73 | 1007.1 |
| 20260506093052 | 17 | 360 | 1.6 | 9.7 | 0.00 | 0.00 | 0.00 | 72 | 1007.1 |
| 20260506092535 | 17 | 360 | 3.2 | 9.7 | 0.00 | 0.00 | 0.00 | 72 | 1007.0 |
| 20260506092037 | 17 | 360 | 1.6 | 12.9 | 0.00 | 0.00 | 0.00 | 72 | 1007.0 |
| 20260506091545 | 17 | 360 | 1.6 | 12.9 | 0.00 | 0.00 | 0.00 | 72 | 1007.3 |
| 20260506091036 | 17 | 360 | 1.6 | 14.5 | 0.00 | 0.00 | 0.00 | 72 | 1007.3 |
| 20260506090536 | 17 | 360 | 3.2 | 14.5 | 0.00 | 0.00 | 0.00 | 72 | 1007.3 |
| 20260506090044 | 17 | 360 | 4.8 | 12.9 | 0.00 | 0.00 | 0.00 | 72 | 1007.3 |
| 20260506085535 | 17 | 360 | 4.8 | 12.9 | 0.00 | 0.00 | 0.00 | 72 | 1007.4 |
| 20260506085036 | 17 | 360 | 1.6 | 12.9 | 0.00 | 0.00 | 0.00 | 72 | 1007.4 |
| 20260506084542 | 17 | 360 | 3.2 | 12.9 | 0.00 | 0.00 | 0.00 | 72 | 1007.3 |
| 20260506084036 | 16 | 360 | 3.2 | 9.7 | 0.00 | 0.00 | 0.00 | 73 | 1007.3 |
| 20260506083536 | 16 | 360 | 0.0 | 8.0 | 0.00 | 0.00 | 0.00 | 73 | 1007.4 |
| 20260506083059 | 16 | 360 | 3.2 | 8.0 | 0.00 | 0.00 | 0.00 | 74 | 1007.3 |
| 20260506082536 | 16 | 360 | 1.6 | 6.4 | 0.00 | 0.00 | 0.00 | 74 | 1007.4 |
| 20260506082035 | 15 | 0 | 0.0 | 4.8 | 0.00 | 0.00 | 0.00 | 74 | 1007.4 |
| 20260506081549 | 15 | 360 | 0.0 | 3.2 | 0.00 | 0.00 | 0.00 | 74 | 1007.5 |
| 20260506081036 | 15 | 186 | 0.0 | 3.2 | 0.00 | 0.00 | 0.00 | 74 | 1007.6 |
| 20260506080538 | 16 | 0 | 0.0 | 4.8 | 0.00 | 0.00 | 0.00 | 73 | 1007.4 |
| 20260506073049 | 17 | 0 | 0.0 | 6.4 | 0.00 | 0.00 | 0.00 | 69 | 1007.8 |
| 20260506072535 | 17 | 213 | 3.2 | 9.7 | 0.00 | 0.00 | 0.00 | 68 | 1007.8 |
| 20260506072035 | 17 | 202 | 1.6 | 11.3 | 0.00 | 0.00 | 0.00 | 68 | 1007.7 |
| 20260506071554 | 17 | 230 | 0.0 | 11.3 | 0.00 | 0.00 | 0.00 | 67 | 1007.7 |
| 20260506071035 | 18 | 210 | 1.6 | 12.9 | 0.00 | 0.00 | 0.00 | 67 | 1007.7 |
| 20260506070536 | 17 | 0 | 0.0 | 12.9 | 0.00 | 0.00 | 0.00 | 67 | 1007.8 |
| 20260506062035 | 17 | 0 | 0.0 | 9.7 | 0.00 | 0.00 | 0.00 | 66 | 1008.2 |
| 20260506061547 | 18 | 220 | 1.6 | 9.7 | 0.00 | 0.00 | 0.00 | 66 | 1008.3 |
| 20260506061035 | 18 | 0 | 1.6 | 6.4 | 0.00 | 0.00 | 0.00 | 65 | 1008.3 |
| 20260506060535 | 18 | 230 | 1.6 | 8.0 | 0.00 | 0.00 | 0.00 | 65 | 1008.3 |
| 20260506051035 | 19 | 228 | 3.2 | 14.5 | 0.00 | 0.00 | 0.00 | 59 | 1008.3 |
| 20260506050535 | 19 | 5 | 4.8 | 14.5 | 0.00 | 0.00 | 0.00 | 59 | 1008.5 |
| 20260506045036 | 19 | 208 | 3.2 | 14.5 | 0.00 | 0.00 | 0.00 | 59 | 1008.3 |
| 20260506044542 | 19 | 213 | 4.8 | 14.5 | 0.00 | 0.00 | 0.00 | 58 | 1008.3 |
| 20260506044035 | 19 | 216 | 3.2 | 14.5 | 0.00 | 0.00 | 0.00 | 58 | 1008.3 |
| 20260506043537 | 19 | 258 | 3.2 | 11.3 | 0.00 | 0.00 | 0.00 | 57 | 1008.3 |
| 20260506043043 | 20 | 190 | 3.2 | 11.3 | 0.00 | 0.00 | 0.00 | 57 | 1008.3 |
| 20260506042535 | 20 | 230 | 1.6 | 11.3 | 0.00 | 0.00 | 0.00 | 57 | 1008.3 |
| 20260506042035 | 20 | 230 | 4.8 | 11.3 | 0.00 | 0.00 | 0.00 | 57 | 1008.2 |
| 20260506041548 | 19 | 223 | 1.6 | 12.9 | 0.00 | 0.00 | 0.00 | 57 | 1008.2 |
| 20260506041034 | 20 | 0 | 1.6 | 12.9 | 0.00 | 0.00 | 0.00 | 57 | 1008.2 |
| 20260506040535 | 19 | 289 | 1.6 | 6.4 | 0.00 | 0.00 | 0.00 | 58 | 1008.2 |
| 20260506040043 | 19 | 309 | 1.6 | 6.4 | 0.00 | 0.00 | 0.00 | 58 | 1008.2 |
| 20260506035536 | 19 | 0 | 0.0 | 6.4 | 0.00 | 0.00 | 0.00 | 57 | 1008.2 |
| 20260506035037 | 19 | 0 | 0.0 | 8.0 | 0.00 | 0.00 | 0.00 | 57 | 1008.2 |
| 20260506034541 | 19 | 229 | 0.0 | 9.7 | 0.00 | 0.00 | 0.00 | 58 | 1008.2 |
| 20260506034036 | 19 | 182 | 1.6 | 9.7 | 0.00 | 0.00 | 0.00 | 58 | 1008.2 |
| 20260506033535 | 19 | 0 | 0.0 | 3.2 | 0.00 | 0.00 | 0.00 | 58 | 1008.2 |
| 20260506033046 | 20 | 281 | 0.0 | 6.4 | 0.00 | 0.00 | 0.00 | 57 | 1008.2 |
| 20260506032535 | 20 | 257 | 0.0 | 11.3 | 0.00 | 0.00 | 0.00 | 56 | 1008.2 |
| 20260506032035 | 20 | 293 | 0.0 | 11.3 | 0.00 | 0.00 | 0.00 | 56 | 1008.2 |
| 20260506031544 | 20 | 217 | 3.2 | 8.0 | 0.00 | 0.00 | 0.00 | 56 | 1008.2 |
| 20260506031035 | 20 | 265 | 1.6 | 8.0 | 0.00 | 0.00 | 0.00 | 56 | 1008.2 |
| 20260506030535 | 20 | 229 | 1.6 | 12.9 | 0.00 | 0.00 | 0.00 | 56 | 1008.2 |
| 20260506030044 | 20 | 250 | 0.0 | 12.9 | 0.00 | 0.00 | 0.00 | 56 | 1008.2 |
| 20260506025535 | 20 | 227 | 1.6 | 8.0 | 0.00 | 0.00 | 0.00 | 56 | 1008.2 |
| 20260506025035 | 20 | 211 | 1.6 | 9.7 | 0.00 | 0.00 | 0.00 | 55 | 1008.3 |
| 20260506024558 | 20 | 227 | 1.6 | 9.7 | 0.00 | 0.00 | 0.00 | 54 | 1008.3 |
| 20260506024035 | 20 | 224 | 3.2 | 9.7 | 0.00 | 0.00 | 0.00 | 54 | 1008.3 |
| 20260506023535 | 20 | 214 | 1.6 | 8.0 | 0.00 | 0.00 | 0.00 | 55 | 1008.2 |
| 20260506023051 | 20 | 212 | 1.6 | 6.4 | 0.00 | 0.00 | 0.00 | 54 | 1008.4 |
| 20260506022536 | 20 | 0 | 1.6 | 6.4 | 0.00 | 0.00 | 0.00 | 53 | 1008.3 |
| 20260506022035 | 20 | 269 | 1.6 | 9.7 | 0.00 | 0.00 | 0.00 | 53 | 1008.3 |
| 20260506021553 | 20 | 331 | 3.2 | 9.7 | 0.00 | 0.00 | 0.00 | 52 | 1008.3 |
| 20260506021036 | 20 | 0 | 1.6 | 12.9 | 0.00 | 0.00 | 0.00 | 51 | 1008.5 |
| 20260506020535 | 21 | 238 | 3.2 | 12.9 | 0.00 | 0.00 | 0.00 | 51 | 1008.1 |
| 20260506020055 | 21 | 198 | 1.6 | 9.7 | 0.00 | 0.00 | 0.00 | 50 | 1008.1 |
| 20260506015535 | 21 | 209 | 0.0 | 9.7 | 0.00 | 0.00 | 0.00 | 49 | 1008.2 |
| 20260506015035 | 21 | 179 | 3.2 | 9.7 | 0.00 | 0.00 | 0.00 | 48 | 1008.2 |
| 20260506014548 | 21 | 219 | 1.6 | 9.7 | 0.00 | 0.00 | 0.00 | 48 | 1008.0 |
| 20260506014035 | 21 | 238 | 3.2 | 12.9 | 0.00 | 0.00 | 0.00 | 47 | 1007.9 |
| 20260506013535 | 21 | 239 | 3.2 | 12.9 | 0.00 | 0.00 | 0.00 | 48 | 1007.8 |
| 20260506013047 | 21 | 241 | 3.2 | 12.9 | 0.00 | 0.00 | 0.00 | 47 | 1007.8 |
| 20260506012535 | 22 | 302 | 1.6 | 9.7 | 0.00 | 0.00 | 0.00 | 47 | 1007.7 |
| 20260506012035 | 22 | 211 | 1.6 | 17.7 | 0.00 | 0.00 | 0.00 | 46 | 1007.6 |
| 20260506011604 | 22 | 291 | 4.8 | 17.7 | 0.00 | 0.00 | 0.00 | 46 | 1007.5 |
| 20260506011036 | 21 | 223 | 0.0 | 11.3 | 0.00 | 0.00 | 0.00 | 48 | 1007.5 |
| 20260506010535 | 21 | 265 | 1.6 | 11.3 | 0.00 | 0.00 | 0.00 | 47 | 1007.4 |
| 20260506010046 | 21 | 230 | 1.6 | 12.9 | 0.00 | 0.00 | 0.00 | 47 | 1007.5 |
| 20260506005536 | 21 | 175 | 1.6 | 12.9 | 0.00 | 0.00 | 0.00 | 48 | 1007.4 |
| 20260506005036 | 21 | 188 | 1.6 | 9.7 | 0.00 | 0.00 | 0.00 | 48 | 1007.2 |
| 20260506004559 | 22 | 230 | 1.6 | 9.7 | 0.00 | 0.00 | 0.00 | 47 | 1007.3 |
| 20260506004035 | 22 | 220 | 3.2 | 11.3 | 0.00 | 0.00 | 0.00 | 46 | 1007.2 |
| 20260506003535 | 22 | 221 | 4.8 | 11.3 | 0.00 | 0.00 | 0.00 | 45 | 1007.2 |
| 20260506003045 | 22 | 223 | 4.8 | 16.1 | 0.00 | 0.00 | 0.00 | 44 | 1007.1 |
| 20260506002535 | 23 | 223 | 1.6 | 16.1 | 0.00 | 0.00 | 0.00 | 45 | 1007.0 |
| 20260506002036 | 23 | 251 | 4.8 | 16.1 | 0.00 | 0.00 | 0.00 | 44 | 1007.0 |
| 20260506001546 | 23 | 192 | 4.8 | 14.5 | 0.00 | 0.00 | 0.00 | 44 | 1007.0 |
| 20260506001035 | 23 | 205 | 4.8 | 12.9 | 0.00 | 0.00 | 0.00 | 44 | 1007.1 |
| 20260506000535 | 23 | 226 | 1.6 | 6.4 | 0.00 | 0.00 | 0.00 | 45 | 1007.0 |
| 20260506000110 | 23 | 225 | 3.2 | 8.0 | 0.00 | 0.00 | 0.00 | 44 | 1007.0 |
| 20260505235535 | 23 | 214 | 1.6 | 11.3 | 0.00 | 0.00 | 0.00 | 44 | 1007.1 |
| 20260505235038 | 23 | 207 | 1.6 | 11.3 | 0.00 | 0.00 | 0.00 | 44 | 1006.9 |
| 20260505234547 | 23 | 221 | 3.2 | 11.3 | 0.00 | 0.00 | 0.00 | 44 | 1006.9 |
| 20260505234035 | 23 | 227 | 4.8 | 11.3 | 0.00 | 0.00 | 0.00 | 43 | 1006.8 |
| 20260505233534 | 23 | 201 | 1.6 | 9.7 | 0.00 | 0.00 | 0.00 | 43 | 1006.9 |
| 20260505233041 | 23 | 214 | 3.2 | 11.3 | 0.00 | 0.00 | 0.00 | 43 | 1006.9 |
| 20260505232536 | 23 | 271 | 3.2 | 17.7 | 0.00 | 0.00 | 0.00 | 44 | 1006.8 |
| 20260505232038 | 23 | 287 | 3.2 | 17.7 | 0.00 | 0.00 | 0.00 | 43 | 1006.8 |
| 20260505231551 | 23 | 315 | 3.2 | 12.9 | 0.00 | 0.00 | 0.00 | 43 | 1006.8 |
| 20260505231034 | 24 | 227 | 4.8 | 17.7 | 0.00 | 0.00 | 0.00 | 42 | 1006.6 |
| 20260505230534 | 24 | 221 | 6.4 | 17.7 | 0.00 | 0.00 | 0.00 | 42 | 1006.6 |
| 20260505230101 | 24 | 235 | 6.4 | 16.1 | 0.00 | 0.00 | 0.00 | 41 | 1006.5 |
| 20260505225611 | 24 | 174 | 4.8 | 16.1 | 0.00 | 0.00 | 0.00 | 42 | 1006.5 |
| 20260505225037 | 24 | 244 | 4.8 | 16.1 | 0.00 | 0.00 | 0.00 | 42 | 1006.5 |
| 20260505224546 | 24 | 242 | 4.8 | 14.5 | 0.00 | 0.00 | 0.00 | 41 | 1006.4 |
| 20260505224035 | 24 | 231 | 1.6 | 12.9 | 0.00 | 0.00 | 0.00 | 42 | 1006.5 |
| 20260505223535 | 24 | 230 | 4.8 | 12.9 | 0.00 | 0.00 | 0.00 | 40 | 1006.4 |
| 20260505223043 | 25 | 204 | 3.2 | 27.4 | 0.00 | 0.00 | 0.00 | 40 | 1006.4 |
| 20260505222535 | 25 | 221 | 3.2 | 27.4 | 0.00 | 0.00 | 0.00 | 40 | 1006.2 |
| 20260505222035 | 25 | 53 | 6.4 | 27.4 | 0.00 | 0.00 | 0.00 | 39 | 1006.1 |
| 20260505221541 | 25 | 245 | 4.8 | 17.7 | 0.00 | 0.00 | 0.00 | 40 | 1006.2 |
| 20260505221036 | 25 | 227 | 4.8 | 16.1 | 0.00 | 0.00 | 0.00 | 40 | 1006.2 |
| 20260505220534 | 25 | 243 | 4.8 | 16.1 | 0.00 | 0.00 | 0.00 | 39 | 1006.1 |
| 20260505220049 | 25 | 247 | 4.8 | 27.4 | 0.00 | 0.00 | 0.00 | 40 | 1006.1 |
| 20260505215535 | 25 | 211 | 9.7 | 27.4 | 0.00 | 0.00 | 0.00 | 40 | 1005.9 |
| 20260505215035 | 25 | 232 | 6.4 | 20.9 | 0.00 | 0.00 | 0.00 | 39 | 1005.8 |
| 20260505214545 | 25 | 197 | 6.4 | 20.9 | 0.00 | 0.00 | 0.00 | 39 | 1005.9 |
| 20260505214035 | 25 | 198 | 6.4 | 19.3 | 0.00 | 0.00 | 0.00 | 39 | 1005.8 |
| 20260505213534 | 25 | 232 | 8.0 | 19.3 | 0.00 | 0.00 | 0.00 | 39 | 1005.6 |
| 20260505213043 | 25 | 296 | 3.2 | 17.7 | 0.00 | 0.00 | 0.00 | 41 | 1005.6 |
| 20260505212535 | 25 | 216 | 3.2 | 19.3 | 0.00 | 0.00 | 0.00 | 39 | 1005.8 |
| 20260505212035 | 26 | 205 | 6.4 | 19.3 | 0.00 | 0.00 | 0.00 | 39 | 1005.6 |
| 20260505211547 | 26 | 208 | 6.4 | 16.1 | 0.00 | 0.00 | 0.00 | 38 | 1005.7 |
| 20260505211035 | 26 | 248 | 8.0 | 19.3 | 0.00 | 0.00 | 0.00 | 38 | 1005.7 |
| 20260505210535 | 26 | 184 | 4.8 | 19.3 | 0.00 | 0.00 | 0.00 | 38 | 1005.6 |
| 20260505210042 | 26 | 157 | 3.2 | 9.7 | 0.00 | 0.00 | 0.00 | 36 | 1005.4 |
| 20260505205535 | 26 | 264 | 3.2 | 12.9 | 0.00 | 0.00 | 0.00 | 38 | 1005.6 |
| 20260505205036 | 26 | 204 | 1.6 | 12.9 | 0.00 | 0.00 | 0.00 | 36 | 1005.5 |
| 20260505204559 | 26 | 242 | 4.8 | 14.5 | 0.00 | 0.00 | 0.00 | 35 | 1005.6 |
| 20260505204034 | 26 | 196 | 4.8 | 14.5 | 0.00 | 0.00 | 0.00 | 32 | 1005.3 |
| 20260505203537 | 26 | 170 | 3.2 | 17.7 | 0.00 | 0.00 | 0.00 | 33 | 1005.4 |
| 20260505203055 | 27 | 270 | 4.8 | 19.3 | 0.00 | 0.00 | 0.00 | 31 | 1005.4 |
| 20260505202535 | 27 | 219 | 4.8 | 22.5 | 0.00 | 0.00 | 0.00 | 31 | 1005.3 |
| 20260505202036 | 28 | 265 | 6.4 | 22.5 | 0.00 | 0.00 | 0.00 | 29 | 1005.5 |
| 20260505201547 | 28 | 147 | 4.8 | 14.5 | 0.00 | 0.00 | 0.00 | 29 | 1005.5 |
| 20260505201035 | 28 | 248 | 6.4 | 22.5 | 0.00 | 0.00 | 0.00 | 31 | 1005.6 |
| 20260505200535 | 28 | 249 | 8.0 | 22.5 | 0.00 | 0.00 | 0.00 | 31 | 1005.6 |
| 20260505200046 | 28 | 235 | 8.0 | 19.3 | 0.00 | 0.00 | 0.00 | 30 | 1005.7 |
| 20260505195538 | 28 | 197 | 4.8 | 12.9 | 0.00 | 0.00 | 0.00 | 31 | 1005.7 |
| 20260505195035 | 28 | 260 | 6.4 | 17.7 | 0.00 | 0.00 | 0.00 | 29 | 1005.7 |
| 20260505194603 | 28 | 237 | 6.4 | 17.7 | 0.00 | 0.00 | 0.00 | 28 | 1005.8 |
| 20260505194035 | 28 | 189 | 4.8 | 17.7 | 0.00 | 0.00 | 0.00 | 29 | 1005.9 |
| 20260505193536 | 28 | 187 | 4.8 | 14.5 | 0.00 | 0.00 | 0.00 | 33 | 1005.9 |
| 20260505193047 | 28 | 266 | 6.4 | 17.7 | 0.00 | 0.00 | 0.00 | 30 | 1005.8 |
| 20260505192534 | 28 | 211 | 4.8 | 27.4 | 0.00 | 0.00 | 0.00 | 32 | 1005.9 |
| 20260505192034 | 27 | 254 | 11.3 | 27.4 | 0.00 | 0.00 | 0.00 | 33 | 1006.0 |
| 20260505191555 | 28 | 217 | 6.4 | 16.1 | 0.00 | 0.00 | 0.00 | 35 | 1006.0 |
| 20260505191035 | 27 | 251 | 4.8 | 17.7 | 0.00 | 0.00 | 0.00 | 36 | 1006.1 |
| 20260505190538 | 27 | 264 | 6.4 | 19.3 | 0.00 | 0.00 | 0.00 | 34 | 1006.2 |
| 20260505190045 | 28 | 217 | 4.8 | 19.3 | 0.00 | 0.00 | 0.00 | 37 | 1006.2 |
| 20260505185537 | 27 | 188 | 4.8 | 25.7 | 0.00 | 0.00 | 0.00 | 36 | 1006.3 |
| 20260505185034 | 27 | 211 | 8.0 | 25.7 | 0.00 | 0.00 | 0.00 | 36 | 1006.4 |
| 20260505184545 | 27 | 213 | 8.0 | 24.1 | 0.00 | 0.00 | 0.00 | 36 | 1006.5 |
| 20260505184034 | 27 | 109 | 6.4 | 19.3 | 0.00 | 0.00 | 0.00 | 37 | 1006.5 |
| 20260505183533 | 27 | 235 | 4.8 | 22.5 | 0.00 | 0.00 | 0.00 | 40 | 1006.6 |
| 20260505183043 | 27 | 221 | 8.0 | 24.1 | 0.00 | 0.00 | 0.00 | 37 | 1006.6 |
| 20260505182535 | 27 | 215 | 8.0 | 24.1 | 0.00 | 0.00 | 0.00 | 39 | 1006.8 |
| 20260505182038 | 27 | 247 | 6.4 | 22.5 | 0.00 | 0.00 | 0.00 | 37 | 1006.7 |
| 20260505181551 | 28 | 233 | 6.4 | 22.5 | 0.00 | 0.00 | 0.00 | 37 | 1006.9 |
| 20260505181036 | 28 | 246 | 4.8 | 17.7 | 0.00 | 0.00 | 0.00 | 38 | 1007.1 |
| 20260505180534 | 27 | 269 | 6.4 | 17.7 | 0.00 | 0.00 | 0.00 | 39 | 1007.2 |
| 20260505180049 | 27 | 198 | 8.0 | 16.1 | 0.00 | 0.00 | 0.00 | 39 | 1007.1 |
| 20260505175534 | 27 | 267 | 3.2 | 22.5 | 0.00 | 0.00 | 0.00 | 41 | 1007.2 |
| 20260505175034 | 27 | 296 | 4.8 | 22.5 | 0.00 | 0.00 | 0.00 | 39 | 1007.3 |
| 20260505174545 | 27 | 217 | 9.7 | 22.5 | 0.00 | 0.00 | 0.00 | 38 | 1007.3 |
| 20260505174036 | 27 | 214 | 6.4 | 19.3 | 0.00 | 0.00 | 0.00 | 44 | 1007.2 |
| 20260505173535 | 27 | 194 | 4.8 | 27.4 | 0.00 | 0.00 | 0.00 | 40 | 1007.4 |
| 20260505173055 | 27 | 163 | 6.4 | 27.4 | 0.00 | 0.00 | 0.00 | 40 | 1007.4 |
| 20260505172535 | 27 | 221 | 8.0 | 24.1 | 0.00 | 0.00 | 0.00 | 39 | 1007.3 |
| 20260505172035 | 27 | 238 | 6.4 | 16.1 | 0.00 | 0.00 | 0.00 | 39 | 1007.4 |
| 20260505171554 | 27 | 243 | 6.4 | 22.5 | 0.00 | 0.00 | 0.00 | 41 | 1007.4 |
| 20260505171035 | 27 | 194 | 3.2 | 35.4 | 0.00 | 0.00 | 0.00 | 40 | 1007.4 |
| 20260505170535 | 27 | 196 | 8.0 | 35.4 | 0.00 | 0.00 | 0.00 | 39 | 1007.4 |
| 20260505170052 | 27 | 188 | 4.8 | 27.4 | 0.00 | 0.00 | 0.00 | 42 | 1007.5 |
| 20260505165535 | 26 | 266 | 11.3 | 27.4 | 0.00 | 0.00 | 0.00 | 43 | 1007.7 |
| 20260505165035 | 27 | 242 | 8.0 | 17.7 | 0.00 | 0.00 | 0.00 | 41 | 1007.7 |
| 20260505164548 | 27 | 223 | 4.8 | 14.5 | 0.00 | 0.00 | 0.00 | 40 | 1007.7 |
| 20260505164037 | 27 | 229 | 4.8 | 25.7 | 0.00 | 0.00 | 0.00 | 43 | 1007.8 |
| 20260505163536 | 26 | 142 | 4.8 | 27.4 | 0.00 | 0.00 | 0.00 | 44 | 1007.9 |
| 20260505163048 | 26 | 195 | 11.3 | 27.4 | 0.00 | 0.00 | 0.00 | 44 | 1008.0 |